This demonstration page uses our WeatherBlox Daily Observations layout. Learn more.

Left ArrowRight Arrow

Hourly Observations for March 8, 2020

Temp ( °F °C ) Dew Point ( °F °C ) Humidity (%) Winds ( mph kmh ) Pressure ( in mb ) Visibility ( mi km ) Precip ( " mm )
12:56 am 00:56 Clear 49 9.4 30 -1.1 48 48 S 17 28 29.85 1011 10 16 0.00 0.00
1:56 am 01:56 Clear 47 8.3 31 -0.6 54 54 S 14 22 29.84 1011 10 16 0.00 0.00
3:56 am 03:56 Clear 46 7.8 32 0 58 58 S 15 24 29.82 1010 10 16 0.00 0.00
4:56 am 04:56 Clear 45 7.2 33 0.6 63 63 S 13 20 29.81 1009 10 16 0.00 0.00
5:56 am 05:56 Clear 43 6.1 34 1.1 71 71 S 16 26 29.80 1009 10 16 0.00 0.00
6:56 am 06:56 Clear 44 6.7 35 1.7 71 71 S 16 26 29.79 1009 10 16 0.00 0.00
7:56 am 07:56 Clear 44 6.7 35 1.7 71 71 S 16 26 29.80 1009 10 16 0.00 0.00
8:56 am 08:56 Sunny 46 7.8 35 1.7 66 66 S 16 26 29.80 1009 10 16 0.00 0.00
9:56 am 09:56 Sunny 51 10.6 37 2.8 59 59 S 17 28 29.79 1009 10 16 0.00 0.00
10:56 am 10:56 Sunny 57 13.9 39 3.9 51 51 SSW 21 33 29.78 1008 10 16 0.00 0.00
11:56 am 11:56 Sunny 60 15.6 39 3.9 46 46 SSW 18 30 29.77 1008 10 16 0.00 0.00
12:56 pm 12:56 Sunny 65 18.3 40 4.4 40 40 SSW 18 30 29.76 1008 10 16 0.00 0.00
1:56 pm 13:56 Sunny 70 21.1 41 5 35 35 SSW 15 24 29.74 1007 10 16 0.00 0.00
2:56 pm 14:56 Sunny 73 22.8 41 5 32 32 SSW 17 28 29.73 1007 10 16 0.00 0.00
3:56 pm 15:56 Sunny 74 23.3 42 5.6 32 32 SSW 20 31 29.72 1006 10 16 0.00 0.00
4:56 pm 16:56 Sunny 74 23.3 42 5.6 32 32 S 18 30 29.72 1006 10 16 0.00 0.00
5:56 pm 17:56 Sunny 72 22.2 42 5.6 34 34 S 22 35 29.72 1007 10 16 0.00 0.00
6:56 pm 18:56 Sunny 66 18.9 43 6.1 43 43 S 20 31 29.75 1008 10 16 0.00 0.00
7:56 pm 19:56 Clear 62 16.7 43 6.1 50 50 S 14 22 29.78 1008 10 16 0.00 0.00
8:56 pm 20:56 Clear 59 15 44 6.7 58 58 S 16 26 29.79 1009 10 16 0.00 0.00
9:56 pm 21:56 Clear 56 13.3 44 6.7 65 65 S 15 24 29.82 1010 10 16 0.00 0.00
10:56 pm 22:56 Mostly Cloudy 56 13.3 46 7.8 70 70 VRB 5 7 29.88 1012 10 16 0.00 0.00
11:07 pm 23:07 Cloudy 55 13 46 8 72 72 VRB 6 9 29.88 1012 10 16 0.00 0.00
11:14 pm 23:14 Cloudy 55 13 46 8 72 72 NW 5 7 29.89 1012 10 16 0.00 0.00
11:48 pm 23:48 Cloudy 48 9 39 4 71 71 N 23 37 29.92 1013 10 16 0.00 0.00
11:56 pm 23:56 Cloudy 48 8.9 39 3.9 71 71 NNE 24 39 29.90 1013 10 16 0.00 0.00

Powered by AerisWeather